Wind_Speed
46 45 45 46 47 47 47 48 50 52 55 58 61 63 64 64 63 62 61 59 57 55 54 51 49 47 44 42 40 38 35 32 30 28 27 24 23 21 20 19 19 19 19
50 50 50 50 50 49 49 49 49 49 51 54 57 60 64 67 68 68 66 65 63 60 59 57 54 52 49 46 43 40 38 35 32 30 28 25 24 22 20 19 19 19 19
54 55 55 55 54 53 51 50 50 49 49 50 53 56 60 64 68 70 70 70 69 66 63 61 59 56 53 50 46 43 40 37 34 31 29 27 24 23 21 20 19 19 19
57 58 58 58 57 56 54 53 51 50 49 49 50 52 54 58 63 67 71 72 72 70 68 64 62 59 57 53 50 46 43 40 36 33 30 28 26 23 22 20 19 20 20
59 60 60 60 59 57 55 53 51 50 49 48 48 48 49 52 55 58 63 69 72 72 71 68 64 61 59 56 53 49 46 43 39 35 32 29 27 24 23 21 20 20 20
61 61 60 58 57 55 54 51 50 49 49 49 48 48 47 48 49 52 55 59 64 69 70 70 68 64 61 59 56 52 48 45 42 38 33 30 28 26 24 22 21 20 20
59 58 57 57 55 54 52 50 48 46 46 47 47 47 47 46 45 45 47 49 53 58 64 68 68 66 63 59 57 55 50 47 43 40 35 32 30 27 25 23 22 21 20
58 58 56 55 52 49 47 46 44 43 43 44 45 45 45 44 43 42 42 43 45 48 52 58 63 65 66 61 56 54 51 48 44 41 37 34 31 29 26 24 23 22 20
57 55 53 51 47 44 42 39 38 38 39 40 42 43 44 43 43 42 40 39 39 41 43 46 52 58 62 62 58 54 52 49 45 42 39 36 33 30 27 25 23 22 21
55 52 49 45 41 39 35 33 31 32 33 36 40 41 42 42 41 41 40 38 36 36 38 39 43 48 53 58 58 55 52 49 46 43 40 37 34 31 28 25 24 22 21
51 49 45 41 38 34 30 27 26 27 29 32 36 38 40 40 40 40 39 37 35 34 34 35 36 41 46 51 54 55 52 50 47 44 41 37 34 31 29 26 24 23 22
49 47 43 38 34 30 25 21 20 21 23 26 30 33 36 37 37 37 37 35 34 33 33 33 33 36 42 47 51 52 51 49 47 45 41 37 34 31 29 27 25 24 23
46 44 40 36 32 28 22 17 14 14 17 21 25 28 31 34 34 35 35 34 33 32 32 32 32 34 38 43 48 51 50 49 47 44 41 38 35 32 30 28 26 25 23
44 42 38 35 31 27 21 15 9 7 11 16 21 24 27 31 32 33 33 33 32 31 31 32 31 32 36 41 46 48 49 48 46 43 41 38 35 32 30 28 27 25 24
43 41 37 34 30 26 21 15 9 3 5 11 16 20 24 27 30 31 32 32 31 31 31 31 31 33 36 39 44 47 48 47 46 43 41 39 36 33 31 29 27 25 24
41 39 37 34 30 26 22 17 12 6 2 8 12 16 19 23 26 28 29 29 30 30 31 31 32 34 36 41 45 46 47 47 45 43 41 38 36 33 31 29 27 26 25
40 38 36 34 30 26 22 18 14 8 3 4 9 12 16 19 22 24 26 27 28 29 30 31 32 33 36 42 47 46 46 46 44 41 39 37 35 33 31 30 28 26 25
39 37 35 33 31 27 23 19 15 10 6 4 6 9 12 15 18 21 23 24 26 27 28 29 31 33 37 42 47 46 45 45 44 41 39 36 34 33 31 29 28 27 26
39 37 35 32 30 27 24 20 16 11 8 6 5 7 10 12 15 18 20 22 23 24 25 27 30 33 37 43 47 46 44 45 44 41 38 36 34 32 31 30 28 27 26
39 37 34 32 30 27 25 21 18 14 10 7 6 7 8 10 13 15 17 20 20 21 23 25 29 33 37 42 45 45 44 45 43 40 37 35 33 32 30 28 27 27 26
38 36 34 32 30 28 25 22 19 15 12 8 7 7 8 10 12 13 15 17 18 19 21 23 26 32 36 39 43 43 43 43 41 38 37 34 32 30 29 28 27 26 25
36 35 33 31 30 28 26 24 20 17 15 13 12 11 11 11 12 13 14 15 17 18 20 22 26 31 35 39 41 41 41 40 38 36 34 33 31 29 28 26 26 25 24
34 33 33 31 30 29 28 26 22 20 18 17 16 15 14 14 15 15 16 18 19 20 21 24 28 34 37 38 38 38 37 36 35 33 31 29 28 27 26 25 24 24 23
32 32 32 31 30 29 28 27 25 23 22 21 20 18 18 17 18 19 20 22 23 24 26 29 32 35 36 36 35 35 34 33 32 30 29 27 26 25 24 23 22 22 21
29 29 29 30 30 29 27 26 26 25 25 24 24 23 22 23 23 24 24 25 27 29 30 31 33 33 33 32 31 30 29 29 27 26 25 25 24 23 22 21 21 20 20
25 26 26 27 28 27 26 26 25 25 26 26 26 26 26 25 25 26 26 28 29 29 29 30 29 29 28 27 26 25 25 24 23 22 22 22 22 21 20 19 19 19 19
Wind_Direction
303 300 297 293 289 284 281 276 271 266 261 255 251 248 246 244 242 242 241 241 241 242 242 242 242 242 242 242 242 243 244 248 252 258 263 268 272 277 279 279 276 268 258
306 303 300 297 292 288 283 279 274 270 265 259 253 250 246 244 242 240 240 239 239 240 240 240 240 240 240 241 241 241 242 244 247 252 258 263 267 272 275 275 274 268 259
306 303 300 297 293 289 284 280 275 271 266 261 257 253 248 245 243 241 239 239 238 238 238 238 238 238 238 239 240 240 240 241 243 247 252 257 262 268 270 271 271 266 260
305 303 301 297 293 289 285 280 275 270 265 261 258 254 251 247 245 242 240 239 238 237 236 237 237 236 236 237 238 238 238 239 240 243 247 251 256 262 266 267 268 264 258
306 304 302 298 294 290 286 281 275 269 264 259 256 253 251 248 246 244 242 239 238 238 236 235 235 235 234 234 235 236 236 237 238 239 243 247 251 256 260 262 263 261 257
309 306 304 301 296 291 286 281 275 267 261 257 252 249 248 248 246 245 243 242 240 238 237 235 234 233 232 231 232 233 233 234 235 237 239 243 247 251 255 257 258 257 255
312 309 306 302 298 293 288 281 274 266 260 255 249 246 244 244 244 243 242 241 240 240 238 236 234 232 231 230 230 230 231 231 232 234 236 240 243 246 249 252 252 253 253
315 313 310 306 301 295 290 282 273 264 256 251 246 243 241 239 239 240 241 240 239 238 239 237 234 233 231 229 228 228 228 229 229 230 232 235 239 242 245 248 249 250 250
321 318 314 310 304 299 293 283 272 263 255 249 242 239 238 236 236 236 237 237 236 235 235 236 235 232 231 230 228 226 225 225 226 227 229 232 235 238 241 244 246 246 245
327 325 321 316 311 306 297 285 272 262 254 246 238 235 233 232 233 233 233 232 231 231 231 232 232 229 228 227 226 224 223 222 222 224 226 228 230 233 235 238 240 241 240
334 333 330 326 321 315 305 291 276 264 253 243 234 230 228 228 229 229 228 228 227 226 226 226 227 225 222 221 221 221 220 218 219 220 222 224 226 228 230 233 235 235 237
340 340 338 336 332 326 315 299 282 265 250 238 228 225 223 223 224 224 224 224 222 222 222 222 223 222 219 217 216 216 216 215 216 217 219 220 222 224 226 228 232 233 234
346 347 347 346 343 340 333 318 293 264 243 231 223 220 219 218 219 220 220 220 219 219 218 219 220 218 215 213 212 212 212 212 213 214 215 216 218 220 222 224 228 230 231
353 354 354 354 354 353 352 346 327 276 233 221 217 217 217 216 216 217 218 218 217 217 217 217 216 213 210 209 208 206 207 208 209 210 211 213 214 216 219 222 225 228 230
357 359 360 360 1 2 5 6 4 344 213 208 209 211 212 213 214 215 215 215 215 215 215 213 212 209 206 204 202 201 203 204 206 207 208 210 212 214 216 218 222 224 227
1 3 4 6 7 9 11 14 14 12 215 203 204 205 206 208 209 211 212 212 213 213 213 211 208 205 201 199 196 197 199 201 203 204 205 207 209 212 214 216 219 222 224
5 7 8 10 11 13 15 17 19 25 44 181 192 196 199 202 204 206 207 208 209 210 209 208 204 201 197 196 194 195 197 199 199 200 203 205 207 210 212 213 218 220 222
8 10 11 13 14 17 20 21 25 33 51 114 165 181 190 195 197 200 202 203 204 206 207 207 203 199 195 192 190 190 192 194 195 198 200 202 205 208 210 213 216 217 219
11 13 15 17 19 21 23 26 33 43 58 89 132 161 175 183 188 192 195 197 200 203 205 204 200 196 192 190 189 187 188 189 191 195 197 201 204 207 209 212 214 215 217
14 16 19 21 23 25 27 30 36 43 54 74 108 142 163 176 184 187 190 192 194 198 199 197 195 189 187 189 187 185 186 186 188 191 194 199 202 205 207 208 210 212 214
15 17 20 23 27 31 33 35 38 44 56 71 95 116 130 144 158 169 176 182 187 190 190 189 188 185 184 183 183 182 182 182 184 188 193 197 200 202 204 206 208 210 212
17 20 23 27 30 33 36 39 43 49 58 71 89 105 117 124 133 146 156 164 171 173 176 179 178 177 175 177 178 177 178 180 182 187 193 195 197 199 201 204 207 209 211
19 23 27 30 33 36 40 44 50 55 60 69 85 99 109 116 122 127 133 140 146 154 161 162 162 164 167 169 170 173 176 178 181 186 190 192 194 197 201 203 206 208 211
22 26 29 31 34 37 41 46 53 60 67 73 82 93 101 107 111 116 121 124 130 139 144 148 154 158 159 162 166 170 173 176 180 184 187 191 194 198 201 204 207 210 214
23 27 30 33 35 38 43 49 56 64 70 76 83 91 98 102 105 109 114 119 124 129 135 142 148 154 157 160 165 170 174 177 180 184 188 192 195 198 202 206 210 214 218
22 27 31 34 39 44 49 53 59 66 72 78 83 88 94 99 105 111 116 121 126 130 134 137 142 148 155 161 166 170 173 177 181 185 189 192 196 200 205 210 215 220 225
Height
5696 5692 5689 5685 5682 5679 5677 5675 5674 5674 5675 5678 5680 5684 5688 5692 5697 5702 5707 5712 5716 5721 5725 5730 5735 5740 5745 5750 5755 5759 5763 5766 5769 5772 5774 5775 5775 5774 5774 5773 5773 5773 5774
5679 5674 5670 5666 5663 5660 5658 5656 5654 5654 5654 5655 5658 5661 5665 5670 5675 5681 5686 5693 5699 5704 5709 5715 5721 5726 5732 5737 5743 5748 5753 5757 5761 5763 5766 5768 5768 5769 5768 5768 5768 5768 5769
5663 5657 5652 5647 5643 5640 5638 5636 5634 5634 5634 5635 5636 5639 5643 5647 5652 5658 5665 5671 5678 5685 5692 5699 5706 5712 5718 5724 5730 5736 5742 5747 5751 5755 5758 5760 5762 5762 5762 5763 5763 5763 5764
5646 5639 5633 5627 5622 5619 5616 5614 5613 5613 5614 5615 5617 5619 5622 5626 5630 5636 5643 5650 5657 5665 5673 5681 5689 5697 5704 5711 5717 5724 5730 5736 5741 5746 5749 5752 5754 5755 5756 5757 5757 5758 5759
5629 5621 5613 5606 5601 5596 5594 5592 5591 5591 5593 5594 5597 5600 5603 5607 5611 5616 5622 5629 5637 5645 5654 5663 5671 5680 5688 5696 5704 5711 5718 5725 5731 5736 5740 5744 5747 5749 5750 5751 5752 5752 5753
5611 5602 5593 5585 5579 5574 5571 5569 5568 5569 5571 5574 5577 5581 5585 5589 5594 5598 5604 5610 5617 5625 5634 5643 5653 5662 5672 5680 5689 5697 5705 5713 5720 5726 5731 5735 5739 5741 5743 5744 5746 5747 5748
5593 5583 5573 5565 5558 5552 5548 5546 5546 5547 5549 5553 5557 5562 5567 5573 5577 5583 5588 5594 5601 5608 5616 5625 5634 5644 5655 5665 5674 5683 5692 5701 5709 5716 5722 5727 5731 5734 5736 5738 5740 5741 5742
5577 5565 5554 5545 5537 5531 5527 5525 5525 5526 5529 5534 5539 5545 5551 5557 5562 5568 5574 5580 5586 5593 5600 5608 5617 5627 5638 5649 5659 5670 5680 5689 5698 5706 5712 5717 5722 5725 5728 5731 5733 5735 5737
5561 5549 5537 5526 5518 5512 5508 5505 5505 5507 5511 5515 5521 5528 5535 5542 5548 5555 5561 5567 5574 5580 5587 5594 5602 5611 5623 5635 5647 5658 5668 5678 5686 5695 5702 5708 5713 5717 5721 5724 5727 5728 5731
5549 5535 5523 5512 5503 5497 5492 5489 5489 5491 5495 5499 5506 5513 5521 5528 5536 5542 5549 5556 5563 5570 5576 5583 5590 5599 5608 5620 5634 5646 5657 5667 5676 5685 5692 5699 5704 5709 5713 5717 5720 5723 5725
5539 5525 5512 5501 5492 5485 5480 5477 5476 5478 5481 5486 5492 5500 5508 5516 5524 5531 5538 5546 5553 5559 5566 5573 5580 5588 5597 5608 5622 5635 5646 5656 5666 5675 5683 5690 5696 5701 5706 5710 5714 5717 5720
5532 5518 5506 5495 5485 5477 5472 5468 5467 5468 5471 5475 5482 5490 5498 5506 5514 5522 5529 5536 5544 5550 5557 5564 5571 5579 5588 5598 5611 5623 5634 5646 5657 5666 5674 5682 5689 5695 5699 5703 5707 5710 5713
5528 5515 5502 5492 5482 5474 5468 5463 5462 5462 5465 5469 5475 5483 5490 5498 5506 5513 5521 5528 5536 5543 5549 5556 5563 5571 5579 5589 5601 5613 5625 5637 5648 5658 5667 5675 5681 5687 5692 5696 5700 5704 5707
5525 5513 5502 5491 5482 5474 5467 5463 5460 5459 5462 5466 5471 5478 5484 5492 5499 5506 5514 5521 5529 5536 5542 5549 5556 5563 5572 5581 5593 5605 5617 5629 5640 5650 5659 5667 5674 5680 5685 5690 5695 5698 5702
5525 5514 5503 5493 5484 5476 5470 5465 5463 5462 5463 5466 5470 5475 5481 5487 5494 5501 5508 5515 5523 5529 5536 5543 5549 5557 5565 5574 5586 5598 5610 5621 5632 5642 5651 5660 5667 5673 5679 5684 5689 5693 5696
5527 5516 5505 5496 5487 5480 5474 5470 5466 5465 5465 5467 5470 5474 5479 5484 5490 5497 5504 5511 5517 5524 5530 5537 5544 5551 5559 5569 5580 5592 5604 5615 5626 5636 5645 5654 5661 5668 5673 5678 5683 5687 5691
5529 5519 5509 5500 5491 5484 5478 5474 5470 5469 5468 5469 5471 5474 5478 5483 5488 5494 5500 5507 5513 5519 5525 5531 5538 5545 5554 5564 5575 5586 5598 5610 5621 5631 5640 5648 5655 5662 5668 5673 5678 5682 5685
5532 5522 5513 5504 5496 5489 5483 5478 5475 5472 5471 5472 5473 5475 5479 5483 5488 5493 5498 5504 5509 5515 5521 5527 5533 5541 5549 5560 5571 5582 5594 5605 5616 5626 5635 5643 5650 5657 5663 5668 5672 5677 5680
5536 5527 5517 5509 5501 5495 5488 5483 5480 5477 5476 5475 5476 5478 5481 5484 5488 5492 5497 5502 5507 5512 5518 5523 5531 5538 5547 5557 5567 5579 5590 5601 5612 5622 5631 5639 5646 5652 5658 5663 5667 5672 5676
5541 5532 5523 5515 5507 5501 5494 5489 5485 5482 5481 5480 5480 5481 5483 5486 5489 5493 5497 5502 5506 5511 5516 5522 5528 5536 5546 5555 5566 5577 5588 5598 5609 5618 5627 5635 5642 5648 5653 5659 5663 5667 5671
5547 5538 5529 5521 5514 5507 5501 5495 5491 5488 5485 5484 5484 5485 5486 5488 5491 5494 5498 5502 5507 5511 5516 5522 5529 5537 5546 5555 5566 5576 5587 5597 5607 5616 5624 5632 5638 5644 5650 5655 5659 5663 5668
5552 5544 5536 5528 5521 5514 5508 5502 5497 5494 5491 5490 5489 5490 5491 5493 5494 5497 5500 5504 5509 5514 5519 5525 5531 5540 5549 5558 5568 5579 5588 5598 5607 5615 5622 5629 5635 5641 5646 5652 5656 5660 5664
5558 5550 5543 5536 5529 5522 5516 5510 5505 5501 5499 5496 5496 5496 5497 5499 5500 5503 5505 5509 5513 5518 5523 5529 5537 5545 5554 5563 5573 5582 5591 5600 5608 5615 5622 5628 5634 5639 5644 5649 5653 5657 5661
5564 5557 5550 5543 5537 5531 5525 5520 5514 5510 5508 5505 5504 5504 5505 5506 5508 5510 5513 5516 5520 5525 5531 5537 5545 5553 5562 5570 5579 5587 5594 5602 5609 5615 5621 5627 5633 5638 5642 5646 5650 5654 5657
5570 5564 5558 5552 5546 5540 5535 5530 5525 5521 5518 5516 5515 5514 5515 5516 5517 5520 5522 5526 5530 5535 5541 5548 5555 5562 5570 5578 5585 5592 5598 5605 5611 5616 5621 5626 5631 5636 5640 5644 5648 5651 5654
5576 5570 5565 5560 5555 5549 5544 5540 5536 5533 5530 5528 5527 5526 5526 5527 5529 5531 5534 5538 5542 5547 5552 5558 5564 5571 5577 5584 5590 5596 5601 5607 5612 5617 5622 5626 5630 5635 5638 5642 5645 5648 5650